Regional Weather Roundup
Issued by NWS

Home | Current Version | Previous Version | Graphics & Text | Print | Product List | Glossary Off
Versions: 1 2 3 4 5 6 7 8 9 10 11 12 13 14 15 16 17 18 19 20 21 22 23 24 25 26 27 28 29 30 31 32 33 34 35 36 37 38 39 40 41 42 43 44 45 46 47 48 49 50

000
ASUS43 KBIS 311810
RWRND

NORTH DAKOTA REGIONAL WEATHER ROUNDUP
NATIONAL WEATHER SERVICE BISMARCK ND
100 PM CDT MON AUG 31 2015

NOTE: "FAIR" INDICATES FEW OR NO CLOUDS BELOW 12,000 FEET WITH NO
SIGNIFICANT WEATHER AND/OR OBSTRUCTIONS TO VISIBILITY.


NDZ001>003-009>011-017-311900-
NORTHWEST NORTH DAKOTA

CITY           SKY/WX    TMP DP  RH WIND       PRES   REMARKS
WILLISTON      SUNNY     74  40  29 W15G23    29.87F
MINOT          SUNNY     74  43  32 W20G26    29.84S
MINOT AFB      SUNNY     74  43  32 W14G28    29.81F
$$

NDZ018>021-031>035-040>046-311900-
SOUTHWEST NORTH DAKOTA

CITY           SKY/WX    TMP DP  RH WIND       PRES   REMARKS
BISMARCK       PTSUNNY   76  52  43 NW12      29.90R
6HR MIN TEMP:  68; 6HR MAX TEMP:  77;

DICKINSON      SUNNY     74  41  30 W15       29.93F
GARRISON         N/A     73  47  39 W17G24    29.88S
6HR MIN TEMP:  62; 6HR MAX TEMP:  73;

HETTINGER ARPT PTSUNNY   75  43  31 W13       29.97S
$$

NDZ004>008-012>016-024-026-027-054-311900-
NORTHEAST NORTH DAKOTA

CITY           SKY/WX    TMP DP  RH WIND       PRES   REMARKS
GRAND FORKS    PTSUNNY   80  63  55 N14       29.75R
GRND FRKS AFB  PTSUNNY   78  63  59 N17       29.77R
DEVILS LAKE    MOSUNNY   73  54  49 W14G23    29.79S
$$

NDZ022-023-025-028>030-036>039-047>053-311900-
SOUTHEAST NORTH DAKOTA

CITY           SKY/WX    TMP DP  RH WIND       PRES   REMARKS
FARGO          PTSUNNY   81  65  58 W12       29.76R
6HR MIN TEMP:  66; 6HR MAX TEMP:  82;

JAMESTOWN      PTSUNNY   75  60  59 N12G20    29.83R
$$



USA.gov is the U.S. government's official web portal to all federal, state and local government web resources and services.